Theta_e
322 322 322 322 322 323 323 323 324 323 321 320 319 319 318 317 317 316 316 315 316 315
310 316 322 324 325 325 325 325 324 323 323 321 321 320 319 318 317 317 316 316 316 316
301 303 304 307 307 311 315 321 325 325 323 323 322 321 320 319 319 317 317 317 317 317
298 299 300 300 301 302 305 307 311 316 322 322 322 321 321 320 320 318 317 318 317 316
294 295 296 296 297 299 300 302 303 305 309 316 322 322 322 321 321 319 318 318 317 316
291 292 292 293 294 295 296 296 298 300 302 305 309 316 320 322 322 322 321 320 319 318
288 290 290 291 292 293 293 293 294 296 297 300 303 307 310 315 319 321 321 322 321 320
287 288 288 288 288 289 290 291 292 293 294 295 297 300 303 307 310 313 317 319 321 321
285 284 283 283 284 285 286 288 289 290 291 292 293 295 296 298 301 305 308 311 315 318
280 279 279 280 281 281 282 284 285 286 287 288 290 293 294 294 297 299 302 305 309 312
276 275 277 278 278 278 280 281 282 283 285 286 288 291 292 292 293 295 296 300 303 307
274 274 274 274 275 277 278 279 279 280 280 281 283 288 290 291 290 291 292 295 299 303
273 273 272 272 273 275 275 276 278 279 281 283 283 286 288 289 288 288 289 291 293 293
272 272 272 272 273 274 274 276 276 278 279 280 281 282 287 289 288 288 288 289 291 293
Wind_Speed
5 3 4 5 5 5 6 7 8 9 12 13 12 11 11 9 10 12 12 16 14 11
10 9 5 5 4 4 6 7 7 8 11 12 12 12 11 9 12 12 12 13 14 13
9 9 8 8 9 9 9 9 9 8 8 11 12 12 11 11 12 13 11 11 14 14
10 9 7 7 8 8 9 10 11 10 10 9 10 10 11 14 13 14 14 14 14 17
9 9 9 9 9 8 9 10 10 11 11 11 10 9 12 14 12 13 15 16 16 18
11 11 10 10 10 9 9 10 10 10 11 12 11 12 11 12 13 14 15 15 16 17
10 10 11 11 11 10 10 10 10 11 11 11 12 12 12 12 13 14 15 16 17 19
10 9 11 12 12 13 12 12 11 12 12 12 12 10 10 11 13 15 16 17 17 19
11 12 12 13 13 13 12 13 13 13 13 15 11 15 15 13 14 15 16 18 19 18
12 13 13 13 13 13 14 14 14 14 14 16 17 21 20 16 14 16 17 18 18 18
13 13 13 13 14 14 14 14 14 15 15 17 17 24 24 20 16 17 19 20 21 20
14 15 15 15 16 15 15 15 16 16 18 18 22 23 24 21 16 18 21 20 20 20
15 16 17 17 17 15 15 16 15 18 16 17 21 26 26 22 14 18 15 20 21 25
16 17 16 17 16 17 17 17 18 20 18 19 17 22 26 24 16 14 16 16 16 15
Wind_Direction
240 226 219 227 227 236 235 242 239 225 227 228 228 228 223 226 228 230 234 235 233 235
39 29 354 314 281 262 264 263 256 233 232 231 230 228 227 225 229 230 232 237 236 235
29 29 27 25 15 1 347 329 303 275 247 236 229 229 221 235 238 227 231 238 238 235
15 10 16 26 12 3 345 343 339 331 305 262 248 236 232 238 235 241 242 237 238 241
11 8 7 7 360 354 350 341 335 326 321 313 292 260 242 244 243 243 244 244 240 241
3 1 358 353 348 345 341 333 326 323 319 313 305 295 274 256 249 247 240 244 239 241
349 347 346 339 337 334 331 321 317 311 304 299 297 293 288 283 275 260 255 249 241 246
335 341 341 335 332 326 320 313 305 304 303 301 296 294 297 294 288 281 275 264 259 252
340 344 333 331 326 321 313 310 309 304 300 299 291 289 283 285 290 287 280 275 269 261
338 331 332 327 325 320 317 314 308 304 301 294 290 291 292 290 287 286 281 277 274 272
335 330 328 326 323 318 314 312 309 305 302 296 290 292 293 291 286 283 277 271 269 265
334 331 330 328 325 321 317 314 306 303 300 294 290 296 299 297 288 278 277 274 269 263
334 333 330 326 324 320 314 310 310 303 295 290 295 299 299 293 281 277 277 275 272 262
332 328 322 318 316 314 310 307 304 299 299 293 289 294 296 293 280 274 277 275 278 274